TimeEDT,TemperatureF,Dew PointF,Humidity,Sea Level PressureIn,VisibilityMPH,Wind Direction,Wind SpeedMPH,Gust SpeedMPH,PrecipitationIn,Events,Conditions,WindDirDegrees,DateUTC
12:54 AM,44.1,26.1,49,30.01,10.0,WSW,3.5,-,N/A,,Clear,240,2012-11-03 04:54:00
1:54 AM,42.1,26.1,53,30.02,10.0,Calm,Calm,-,N/A,,Clear,0,2012-11-03 05:54:00
2:54 AM,39.9,26.1,58,30.03,10.0,Calm,Calm,-,N/A,,Partly Cloudy,0,2012-11-03 06:54:00
3:54 AM,39.9,26.1,58,30.03,10.0,Calm,Calm,-,N/A,,Clear,0,2012-11-03 07:54:00
4:54 AM,39.9,27.0,60,30.03,10.0,WNW,12.7,-,N/A,,Clear,300,2012-11-03 08:54:00
5:54 AM,41.0,27.0,57,30.05,10.0,NW,16.1,-,N/A,,Scattered Clouds,310,2012-11-03 09:54:00
6:54 AM,41.0,26.1,55,30.07,10.0,WNW,15.0,-,N/A,,Scattered Clouds,300,2012-11-03 10:54:00
7:54 AM,39.0,26.1,60,30.09,10.0,North,4.6,-,N/A,,Partly Cloudy,10,2012-11-03 11:54:00
8:54 AM,43.0,27.0,53,30.11,10.0,Calm,Calm,-,N/A,,Scattered Clouds,0,2012-11-03 12:54:00
9:54 AM,41.0,26.1,55,30.13,10.0,NW,12.7,17.3,N/A,,Scattered Clouds,310,2012-11-03 13:54:00
10:54 AM,46.0,26.1,46,30.13,10.0,Variable,3.5,-,N/A,,Partly Cloudy,0,2012-11-03 14:54:00
11:54 AM,48.9,26.1,41,30.12,10.0,NW,4.6,-,N/A,,Clear,310,2012-11-03 15:54:00
12:54 PM,52.0,25.0,35,30.10,10.0,Variable,5.8,-,N/A,,Clear,0,2012-11-03 16:54:00
1:54 PM,54.0,25.0,33,30.07,10.0,Variable,3.5,-,N/A,,Clear,0,2012-11-03 17:54:00
2:54 PM,57.0,24.1,28,30.05,10.0,NW,11.5,23.0,N/A,,Clear,320,2012-11-03 18:54:00
3:54 PM,57.9,23.0,26,30.03,10.0,NW,11.5,-,N/A,,Scattered Clouds,320,2012-11-03 19:54:00
4:54 PM,57.0,21.0,25,30.05,10.0,WNW,13.8,-,N/A,,Partly Cloudy,300,2012-11-03 20:54:00
5:54 PM,53.1,23.0,31,30.04,10.0,NNW,10.4,-,N/A,,Partly Cloudy,340,2012-11-03 21:54:00
6:54 PM,50.0,25.0,38,30.06,10.0,NW,6.9,-,N/A,,Scattered Clouds,320,2012-11-03 22:54:00
7:54 PM,52.0,25.0,35,30.06,10.0,North,4.6,-,N/A,,Scattered Clouds,10,2012-11-03 23:54:00
8:54 PM,52.0,26.1,37,30.07,10.0,NNW,3.5,-,N/A,,Overcast,330,2012-11-04 00:54:00
9:54 PM,48.9,33.1,54,30.10,10.0,NNE,12.7,16.1,0.00,Rain,Light Rain,30,2012-11-04 01:54:00
10:54 PM,43.0,39.0,86,30.12,8.0,NNE,6.9,-,0.05,Rain,Light Rain,30,2012-11-04 02:54:00
11:54 PM,43.0,39.0,86,30.12,10.0,ENE,4.6,-,0.03,Rain,Light Rain,60,2012-11-04 03:54:00